This demonstration page uses our WeatherBlox Daily Observations layout. Learn more.

Left ArrowRight Arrow

Hourly Observations for January 25, 2017

Temp ( °F °C ) Dew Point ( °F °C ) Humidity (%) Winds ( mph kmh ) Pressure ( in mb ) Visibility ( mi km ) Precip ( " mm )
12:59 am 00:59 Clear 48 8.9 38 3.3 68 68 W 12 19 29.71 1006 10 16 0.00 0.00
1:59 am 01:59 Clear 48 8.9 38 3.3 68 68 W 10 17 29.73 1007 10 16 0.00 0.00
2:59 am 02:59 Clear 48 8.9 38 3.3 68 68 W 13 20 29.75 1008 10 16 0.00 0.00
3:59 am 03:59 Clear 46 7.8 38 3.3 73 73 WSW 9 15 29.77 1008 10 16 0.00 0.00
4:59 am 04:59 Clear 46 7.8 38 3.3 73 73 WSW 7 11 29.78 1009 10 16 0.00 0.00
5:59 am 05:59 Clear 45 7.2 37 2.8 74 74 W 6 9 29.80 1009 10 16 0.00 0.00
6:59 am 06:59 Clear 45 7.2 37 2.8 74 74 WSW 5 7 29.82 1010 10 16 0.00 0.00
7:59 am 07:59 Sunny 45 7.2 37 2.8 74 74 WSW 6 9 29.83 1010 10 16 0.00 0.00
8:59 am 08:59 Sunny 49 9.4 37 2.8 64 64 W 9 15 29.84 1011 10 16 0.00 0.00
9:59 am 09:59 Mostly Sunny 51 10.6 37 2.8 59 59 W 7 11 29.84 1011 10 16 0.00 0.00
10:59 am 10:59 Mostly Sunny 56 13.3 38 3.3 51 51 SW 9 15 29.84 1010 10 16 0.00 0.00
11:59 am 11:59 Mostly Sunny 59 15 37 2.8 44 44 WSW 8 13 29.81 1010 10 16 0.00 0.00
12:59 pm 12:59 Mostly Sunny 62 16.7 36 2.2 38 38 WSW 9 15 29.79 1009 10 16 0.00 0.00
1:59 pm 13:59 Mostly Sunny 65 18.3 35 1.7 33 33 SSW 7 11 29.76 1008 10 16 0.00 0.00
2:59 pm 14:59 Mostly Sunny 67 19.4 33 0.6 28 28 SW 7 11 29.75 1007 10 16 0.00 0.00
3:59 pm 15:59 Mostly Sunny 67 19.4 33 0.6 28 28 SW 8 13 29.73 1007 10 16 0.00 0.00
4:59 pm 16:59 Mostly Sunny 64 17.8 35 1.7 34 34 SSW 5 7 29.73 1007 10 16 0.00 0.00
5:59 pm 17:59 Mostly Clear 60 15.6 35 1.7 39 39 SSW 5 7 29.73 1007 10 16 0.00 0.00
6:59 pm 18:59 Mostly Clear 60 15.6 37 2.8 42 42 S 7 11 29.72 1007 10 16 0.00 0.00
7:59 pm 19:59 Mostly Clear 58 14.4 39 3.9 50 50 S 7 11 29.71 1006 10 16 0.00 0.00
8:59 pm 20:59 Mostly Clear 58 14.4 41 5 53 53 S 10 17 29.69 1005 10 16 0.00 0.00
9:59 pm 21:59 Mostly Clear 58 14.4 41 5 53 53 S 10 17 29.68 1005 10 16 0.00 0.00
10:59 pm 22:59 Mostly Clear 57 13.9 41 5 55 55 SSW 9 15 29.68 1005 10 16 0.00 0.00
11:59 pm 23:59 Partly Cloudy 59 15 41 5 51 51 SSW 12 19 29.65 1004 10 16 0.00 0.00

Powered by AerisWeather